Gallivare, Sweden

10:59 PM CEST on October 17, 2017 (GMT +0200)
Gallivare

Weather History for ESNG - December, 2013

Change the Weather History Date:

Wednesday, December 4, 2013

  Actual Average Record
Temperature  
Mean Temperature 12 °F -  
Max Temperature 23 °F - - ()
Min Temperature 1 °F - - ()
Degree Days  
Heating Degree Days 53    
Moisture  
Dew Point 8 °F    
Average Humidity 80    
Maximum Humidity 93    
Minimum Humidity 63    
Precipitation  
Precipitation 0.00 in - - ()
Sea Level Pressure  
Sea Level Pressure 29.13 in    
Wind  
Wind Speed 11 mph ()    
Max Wind Speed 30 mph    
Max Gust Speed -    
Visibility 4.8 miles    
Events Snow    
T = Trace of Precipitation, MM = Missing Value Source: Averaged Metar Reports

Daily Weather History Graph

Daily Weather History Graph

Search for Another Location

Airport or City:

Trip Planner

Search our weather history database for the weather conditions in past years. The results will help you decide how hot, cold, wet, or windy it might be!

Date:

Astronomy

Dec. 04, 2013 Rise Set
Actual Time 10:02 AM CET 12:52 PM CET
Civil Twilight 8:19 AM CET 2:35 PM CET
Nautical Twilight 7:00 AM CET 3:54 PM CET
Astronomical Twilight 5:53 AM CET 5:01 PM CET
Moon 10:38 AM CET (12/4) 3:19 PM CET (12/4)
Length of Visible Light 6h 16m
Length of Day
2h 50m
Waxing Crescent, 3% of the Moon is Illuminated
Dec 4
Waxing Crescent
Dec 9
First Quarter
Dec 17
Full
Dec 25
Last Quarter
Jan 1
New

Hourly Weather History & Observations

Time (CET) Temp. Windchill Dew Point Humidity Pressure Visibility Wind Dir Wind Speed Gust Speed Precip Events Conditions
12:20 AM 21.2 °F 6.8 °F 15.8 °F 80% 29.21 in 6.2 mi West 17.3 mph - N/A   Unknown
12:50 AM 23.0 °F 8.3 °F 14.0 °F 68% 29.21 in 6.2 mi WSW 19.6 mph - N/A   Unknown
1:20 AM 23.0 °F 6.6 °F 14.0 °F 68% 29.18 in - WSW 25.3 mph - N/A   Ice Crystals
1:50 AM 23.0 °F 5.4 °F 15.8 °F 74% 29.18 in 1.2 mi West 29.9 mph - N/A Snow Light Snow
2:20 AM 23.0 °F 6.9 °F 14.0 °F 68% 29.18 in 5.6 mi West 24.2 mph - N/A   Mist
2:50 AM 23.0 °F 7.2 °F 14.0 °F 68% 29.18 in 6.2 mi West 23.0 mph - N/A   Unknown
3:20 AM 23.0 °F 7.2 °F 14.0 °F 68% 29.18 in 6.2 mi West 23.0 mph - N/A   Unknown
3:50 AM 23.0 °F 8.3 °F 12.2 °F 63% 29.21 in 6.2 mi West 19.6 mph - N/A   Unknown
4:20 AM 23.0 °F 10.1 °F 12.2 °F 63% 29.21 in 6.2 mi West 15.0 mph - N/A   Unknown
4:50 AM 21.2 °F 7.8 °F 12.2 °F 68% 29.21 in - West 15.0 mph - N/A   Clear
5:20 AM 21.2 °F 9.5 °F 12.2 °F 68% 29.21 in - WNW 11.5 mph - N/A   Clear
5:50 AM 19.4 °F 7.9 °F 10.4 °F 68% 29.21 in - West 10.4 mph - N/A   Clear
6:20 AM 19.4 °F 6.6 °F 10.4 °F 68% 29.21 in - West 12.7 mph - N/A   Clear
6:50 AM 19.4 °F 7.9 °F 10.4 °F 68% 29.21 in - West 10.4 mph - N/A   Clear
7:20 AM 19.4 °F 7.9 °F 10.4 °F 68% 29.21 in - NW 10.4 mph - N/A   Clear
7:50 AM 15.8 °F 5.1 °F 8.6 °F 73% 29.21 in - WNW 8.1 mph - N/A   Clear
8:20 AM 15.8 °F 3.4 °F 10.4 °F 79% 29.21 in - West 10.4 mph - N/A   Clear
8:50 AM 14.0 °F 3.9 °F 8.6 °F 79% 29.21 in - NW 6.9 mph - N/A   Clear
9:20 AM 17.6 °F 9.3 °F 10.4 °F 73% 29.24 in - North 5.8 mph - N/A   Clear
9:50 AM 17.6 °F 8.2 °F 10.4 °F 73% 29.24 in - NNW 6.9 mph - N/A   Clear
10:20 AM 14.0 °F 8.2 °F 6.8 °F 73% 29.24 in - WNW 3.5 mph - N/A   Clear
10:50 AM 14.0 °F 8.2 °F 8.6 °F 79% 29.24 in - Variable 3.5 mph - N/A   Clear
11:20 AM 12.2 °F - 6.8 °F 79% 29.24 in - Variable 2.3 mph - N/A   Clear
11:50 AM 10.4 °F 4.0 °F 5.0 °F 79% 29.21 in - Variable 3.5 mph - N/A   Clear
12:20 PM 6.8 °F -0.1 °F 3.2 °F 85% 29.21 in 6.2 mi Variable 3.5 mph - N/A   Unknown
12:50 PM 5.0 °F - 3.2 °F 92% 29.21 in 6.2 mi Variable 2.3 mph - N/A   Unknown
1:20 PM 5.0 °F - 1.4 °F 85% 29.18 in 0.7 mi NW 1.2 mph - N/A Snow Light Snow
1:50 PM 3.2 °F - 1.4 °F 92% 29.18 in 0.6 mi Variable 2.3 mph - N/A Snow Light Snow
2:20 PM 3.2 °F -6.2 °F -0.4 °F 85% 29.18 in 1.2 mi NNW 4.6 mph - N/A   Ice Crystals
2:50 PM 3.2 °F -6.2 °F -0.4 °F 85% 29.15 in - NW 4.6 mph - N/A   Clear
3:20 PM 3.2 °F -4.2 °F -0.4 °F 85% 29.15 in - NNW 3.5 mph - N/A   Clear
3:50 PM 3.2 °F - -0.4 °F 85% 29.15 in - Variable 2.3 mph - N/A   Clear
4:20 PM 1.4 °F - -0.4 °F 92% 29.12 in - Variable 2.3 mph - N/A   Clear
4:50 PM 1.4 °F - -2.2 °F 85% 29.12 in - Calm Calm - N/A   Clear
5:20 PM 1.4 °F -6.2 °F -2.2 °F 85% 29.09 in - SSE 3.5 mph - N/A   Clear
5:50 PM 3.2 °F -6.2 °F -0.4 °F 85% 29.09 in 6.2 mi SE 4.6 mph - N/A   Scattered Clouds
6:20 PM 6.8 °F -0.1 °F 3.2 °F 85% 29.06 in 3.7 mi SSE 3.5 mph - N/A Snow Light Snow
6:50 PM 6.8 °F -0.1 °F 3.2 °F 85% 29.03 in 3.1 mi Variable 3.5 mph - N/A Snow Light Snow
7:20 PM 6.8 °F -0.1 °F 5.0 °F 92% 29.03 in 0.7 mi SSE 3.5 mph - N/A Snow Snow
7:50 PM 10.4 °F - 6.8 °F 85% 29.00 in 3.7 mi Variable 2.3 mph - N/A Snow Light Snow
8:20 PM 8.6 °F 2.0 °F 6.8 °F 92% 29.00 in 6.2 mi Variable 3.5 mph - N/A   Mostly Cloudy
8:50 PM 10.4 °F - 8.6 °F 92% 28.97 in 6.2 mi Calm Calm - N/A   Overcast
9:20 PM 10.4 °F - 8.6 °F 92% 28.94 in 6.2 mi Variable 2.3 mph - N/A   Overcast
9:50 PM 10.4 °F 0.8 °F 8.6 °F 92% 28.94 in 6.2 mi SSE 5.8 mph - N/A Snow Light Snow
10:20 PM 12.2 °F 1.7 °F 10.4 °F 92% 28.91 in 6.2 mi SE 6.9 mph - N/A   Mostly Cloudy
10:50 PM 12.2 °F 6.1 °F 10.4 °F 92% 28.91 in 6.2 mi East 3.5 mph - N/A   Mostly Cloudy
11:20 PM 15.8 °F 10.2 °F 14.0 °F 93% 28.88 in 6.2 mi Variable 3.5 mph - N/A   Ice Crystals
11:50 PM 15.8 °F 8.6 °F 14.0 °F 93% 28.88 in 6.2 mi ESE 4.6 mph - N/A   Overcast